Starlink 3673

operational
NORAD ID: 52093 Int'l Des: 2022-029 Owner: SPXS Country: US Constellation: starlink
LEOCIRCULAR

About Starlink 3673

Description loading...

Live Position

Loading 3D Globe...

Upcoming Passes

Altitude History

Altitude vs Time

uPlot chart will show altitude changes over time

Two-Line Element Set

1 52093U 22029F 25258.99916685 -.00000361 00000-0 -45848-5 0 9995
2 52093 53.2172 153.3463 0001585 86.9593 273.1581 15.08853084194288
Epoch: Sep 15, 2025 • Age: 18 hours

Current Status

Altitude 544.3 km
Velocity 7.60 km/s
Sub-Earth Point 49.30°N, 4.99°E
Launch Date Mar 19, 2022
Age 3.4 years
Type internet

Technical Details

Classification Payload
Mass 297.00 kg
Dry Mass 275.00 kg
Total Mass 297.00 kg
Length 0.20 m
Diameter 2.80 m
Span 9.00 m
Shape Box + pan
Manufacturer SPXS
Bus Type Starlink
Phase Status In Orbit
Owner/State SPXS/US

Large Constellations

Loading constellations...